Flight Track Log - Related Links

Times and Time Zones

All times are in EDT time to prevent confusion due to time zone crossing. See the JZA8618 flight status page for this flight to view local times or setup timezone preferences in your user account.

Time Position Orientation Groundspeed Altitude Reporting Facility
EDT Latitude Longitude Course Direction KTS MPH feet Rate Location/Type
06:45AM 33.6500 -84.4667 287° West 160 184 2,800  Level Atlanta TRACON
06:46AM 33.6667 -84.5333 320° Northwest 211 243 4,700 2,083 Climbing Atlanta TRACON
06:47AM 33.7167 -84.5833 18° North 293 337 7,000 2,600 Climbing Atlanta TRACON
06:48AM 33.8000 -84.5500 26° Northeast 314 361 9,900 2,387 Climbing Atlanta TRACON
06:50AM 33.9564 -84.4594 19° North 324 373 14,600 2,136 Climbing Atlanta Center
06:51AM 34.0419 -84.4247 12° North 319 367 16,700 2,000 Climbing Atlanta Center
06:52AM 34.1486 -84.3978 13° North 330 380 18,600 1,800 Climbing Atlanta Center
06:53AM 34.2406 -84.3731 14° North 348 400 20,300 1,600 Climbing Atlanta Center
06:54AM 34.3386 -84.3431 13° North 348 400 21,800 1,250 Climbing Atlanta Center
06:55AM 34.4283 -84.3183 14° North 353 406 22,800 1,250 Climbing Atlanta Center
06:56AM 34.5267 -84.2883 11° North 358 412 24,300 1,300 Climbing Atlanta Center
06:57AM 34.6289 -84.2633 13° North 363 418 25,400 1,100 Climbing Atlanta Center
06:58AM 34.7353 -84.2333 13° North 378 435 26,500 1,000 Climbing Atlanta Center
06:59AM 34.8503 -84.2008 14° North 384 442 27,400 800 Climbing Atlanta Center
07:00AM 34.9608 -84.1681 12° North 391 450 28,100 750 Climbing Atlanta Center
07:01AM 35.0756 -84.1378 14° North 402 463 28,900 750 Climbing Atlanta Center
07:02AM 35.1903 -84.1022 13° North 413 475 29,600 650 Climbing Atlanta Center
07:03AM 35.3072 -84.0692 13° North 418 481 30,200 550 Climbing Atlanta Center
07:04AM 35.4325 -84.0336 14° North 437 503 30,700 500 Climbing Atlanta Center
07:05AM 35.5556 -83.9953 12° North 442 509 31,200 400 Climbing Atlanta Center
07:06AM 35.6806 -83.9619 14° North 452 520 31,500 300 Climbing Atlanta Center
07:07AM 35.8100 -83.9236 17° North 457 526 31,800 400 Climbing Atlanta Center
07:08AM 35.9372 -83.8747 27° Northeast 463 533 32,300 500 Climbing Atlanta Center
07:09AM 36.0600 -83.7972 27° Northeast 476 548 32,800 482 Climbing Atlanta Center
07:14AM 36.6097 -83.4508 29° Northeast 488 562 35,000 464 Climbing Indianapolis Center
07:15AM 36.7328 -83.3653 30° Northeast 488 562 35,400 400 Climbing Indianapolis Center
07:16AM 36.8536 -83.2767 29° Northeast 497 572 35,800 400 Climbing Indianapolis Center
07:17AM 36.9764 -83.1906 30° Northeast 497 572 36,200 400 Climbing Indianapolis Center
07:18AM 37.0972 -83.1014 30° Northeast 502 578 36,600 400 Climbing Indianapolis Center
07:19AM 37.2322 -83.0039 31° Northeast 502 578 37,000 200 Climbing Indianapolis Center
07:20AM 37.3528 -82.9142 30° Northeast 502 578 37,000  Level Indianapolis Center
07:21AM 37.4753 -82.8242 30° Northeast 503 579 37,000  Level Indianapolis Center
07:22AM 37.5978 -82.7339 30° Northeast 509 586 37,000  Level Indianapolis Center
07:23AM 37.7203 -82.6433 31° Northeast 509 586 37,000  Level Indianapolis Center
07:24AM 37.8383 -82.5550 31° Northeast 502 578 37,000  Level Indianapolis Center
07:25AM 37.9586 -82.4639 30° Northeast 502 578 37,000  Level Indianapolis Center
07:26AM 38.0786 -82.3750 31° Northeast 502 578 37,000  Level Indianapolis Center
07:27AM 38.1944 -82.2858 30° Northeast 489 563 37,000  Level Indianapolis Center
07:28AM 38.3125 -82.1992 31° Northeast 489 563 37,000  Level Indianapolis Center
07:29AM 38.4283 -82.1094 30° Northeast 489 563 37,000  Level Indianapolis Center
07:30AM 38.5481 -82.0194 30° Northeast 489 563 37,000  Level Indianapolis Center
07:31AM 38.6678 -81.9292 30° Northeast 489 563 37,000  Level Indianapolis Center
07:32AM 38.7750 -81.8494 31° Northeast 489 563 37,000  Level Indianapolis Center
07:33AM 38.8989 -81.7533 32° Northeast 495 570 37,000  Level Indianapolis Center
07:34AM 39.0183 -81.6567 31° Northeast 500 575 37,000  Level Indianapolis Center
07:35AM 39.1397 -81.5625 32° Northeast 506 582 37,000  Level Indianapolis Center
07:37AM 39.3828 -81.3672 26° Northeast 504 580 37,000  Level Cleveland Center
07:38AM 39.5125 -81.2853 26° Northeast 509 586 37,000 -300 Level Cleveland Center
07:39AM 39.6403 -81.2031 26° Northeast 509 586 36,400 -800 Descending Cleveland Center
07:40AM 39.7761 -81.1153 26° Northeast 516 594 35,400 -700 Descending Cleveland Center
07:41AM 39.9119 -81.0297 27° Northeast 532 612 35,000 -200 Descending Cleveland Center
07:42AM 40.0478 -80.9383 26° Northeast 532 612 35,000  Level Cleveland Center
07:43AM 40.1856 -80.8494 28° Northeast 532 612 35,000  Level Cleveland Center
07:44AM 40.3150 -80.7600 26° Northeast 527 606 35,000  Level Cleveland Center
07:45AM 40.4611 -80.6678 27° Northeast 527 606 35,000  Level Cleveland Center
07:46AM 40.5944 -80.5778 27° Northeast 527 606 35,000  Level Cleveland Center
07:47AM 40.7258 -80.4900 27° Northeast 520 598 35,000  Level Cleveland Center
07:48AM 40.8531 -80.4047 27° Northeast 520 598 35,000  Level Cleveland Center
07:49AM 40.9883 -80.3136 26° Northeast 520 598 35,000 -350 Level Cleveland Center
07:50AM 41.1194 -80.2275 27° Northeast 520 598 34,300 -500 Descending Cleveland Center
07:51AM 41.2544 -80.1358 28° Northeast 532 612 34,000 -150 Descending Cleveland Center
07:52AM 41.3897 -80.0406 26° Northeast 532 612 34,000  Level Cleveland Center
07:53AM 41.5081 -79.9619 26° Northeast 527 606 34,000  Level Cleveland Center
07:54AM 41.6408 -79.8747 29° Northeast 527 606 34,000 -500 Level Cleveland Center
07:55AM 41.7842 -79.7672 26° Northeast 522 601 33,000 -1,000 Descending Cleveland Center
07:56AM 41.9208 -79.6761 28° Northeast 541 623 32,000 -900 Descending Cleveland Center
07:57AM 42.0453 -79.5878 26° Northeast 548 631 31,200 -900 Descending Cleveland Center
07:58AM 42.1842 -79.4961 28° Northeast 548 631 30,200 -1,000 Descending Cleveland Center
07:59AM 42.3186 -79.3981 27° Northeast 553 636 29,200 -1,050 Descending Cleveland Center
08:00AM 42.4697 -79.2939 North 543 625 28,100 -1,750 Descending Cleveland Center
08:01AM 42.6133 -79.2825 356° North 519 597 25,700 -2,500 Descending Cleveland Center
08:02AM 42.7531 -79.2967 354° North 508 585 23,100 -2,600 Descending Cleveland Center
08:03AM 42.8825 -79.3139 17° North 485 558 20,500 -2,506 Descending Cleveland Center
08:03AM 42.9167 -79.3000 354° North 480 552 19,800 -2,354 Descending Toronto Center
08:04AM 43.0333 -79.3167 360° North 450 518 17,400 -2,000 Descending Toronto Center
08:05AM 43.1500 -79.3167 354° North 420 483 15,800 -1,600 Descending Toronto Center
08:06AM 43.2667 -79.3333 336° Northwest 390 449 14,200 -1,400 Descending Toronto Center
08:07AM 43.3500 -79.3833 360° North 340 391 13,000 -1,600 Descending Toronto Center
08:08AM 43.4333 -79.3833 360° North 310 357 11,000 -2,150 Descending Toronto Center
08:09AM 43.5167 -79.3833 16° North 290 334 8,700 -2,200 Descending Toronto Center
08:10AM 43.6000 -79.3500 10° North 290 334 6,600 -1,850 Descending Toronto Center
08:11AM 43.6667 -79.3333 10° North 280 322 5,000 -1,300 Descending Toronto Center
08:12AM 43.7333 -79.3167 350° North 270 311 4,000 -550 Descending Toronto Center
08:13AM 43.8000 -79.3333 270° West 230 265 3,900 -50 Descending Toronto Center
08:14AM 43.8000 -79.4000 227° Southwest 180 207 3,900 -450 Level Toronto Center
08:15AM 43.7667 -79.4500 227° Southwest 170 196 3,000 -800 Descending Toronto Center
08:16AM 43.7333 -79.5000 216° Southwest 170 196 2,300 -750 Descending Toronto Center
08:17AM 43.7000 -79.5333 216° Southwest 160 184 1,500 -800 Descending Toronto Center

Login

Don't have an account? Register now (free) for customized features, flight alerts, and more!